GW1125 Weather Reports


Display with metric or nautical units.
time (UTC)temp
F
wind
direction
speed
MPH
gust
MPH
rain 1hr
in
rain 24hr
in
rain mn
in
humidity
%
barometer
mb
20260904124826 52 104 0.0 0.0 0.01 1.04 0.01 99 1010.5
20260904123808 52 104 0.0 0.0 0.01 1.06 0.01 99 1010.8
20260904122758 52 104 0.0 0.0 0.01 1.06 0.01 99 1010.5
20260904121757 52 104 0.0 0.0 0.01 1.07 0.01 99 1010.4
20260904120745 52 104 0.0 0.0 0.01 1.07 0.01 99 1010.6
20260904115715 52 104 0.0 0.0 0.01 1.07 0.01 99 1010.3
20260904114659 52 104 0.0 0.0 0.00 1.06 0.00 99 1010.3
20260904113647 52 104 0.0 0.0 0.00 1.06 0.00 99 1010.0
20260904112625 52 104 0.0 0.0 0.00 1.06 0.00 99 1010.1
20260904111616 52 104 0.0 0.0 0.00 1.06 0.00 99 1010.0
20260904110610 52 104 0.0 0.0 0.00 1.06 0.00 99 1010.0
20260904105604 52 104 0.0 0.0 0.00 1.06 0.00 99 1009.9
20260904104552 52 104 0.0 0.0 0.00 1.06 0.00 99 1009.9
20260904103527 52 104 0.0 0.0 0.00 1.06 0.00 99 1009.8
20260904102505 52 104 0.0 0.0 0.00 1.06 0.00 99 1009.7
20260904101439 52 104 0.0 0.0 0.00 1.06 0.00 99 1009.6
20260904100435 52 104 0.0 0.0 0.00 1.06 0.00 99 1009.7
20260904095420 52 104 0.0 0.0 0.00 1.06 0.00 99 1009.7
20260904094409 52 104 0.0 0.0 0.00 1.06 0.00 99 1009.7
20260904093410 52 104 0.0 0.0 0.00 1.06 0.00 99 1009.6
20260904092356 52 104 0.0 0.0 0.00 1.06 0.00 99 1009.7
20260904091352 52 104 0.0 0.0 0.00 1.06 0.00 99 1009.7
20260904090322 52 104 0.0 0.0 0.00 1.06 0.00 99 1009.5
20260904085320 52 104 0.0 0.0 0.00 1.06 0.00 99 1009.6
20260904084318 53 105 0.0 0.0 0.00 1.06 0.00 99 1009.5
20260904083310 53 105 0.0 0.0 0.00 1.06 0.00 99 1009.6
20260904082306 53 105 0.0 0.0 0.00 1.06 0.00 99 1009.5
20260904081254 53 105 0.0 0.0 0.00 1.06 0.00 99 1009.7
20260904080253 53 105 0.0 0.0 0.00 1.06 0.00 99 1009.3
20260904075227 53 104 0.0 0.0 0.01 1.06 1.06 99 1009.7
20260904074157 53 109 0.0 0.0 0.02 1.06 1.06 99 1009.7
20260904073156 53 108 0.0 0.0 0.03 1.06 1.06 99 1009.7
20260904072151 53 108 0.0 0.0 0.03 1.06 1.06 99 1009.6
20260904071133 53 108 0.0 0.0 0.04 1.06 1.06 99 1009.7
20260904070123 53 108 0.0 0.0 0.04 1.06 1.06 99 1009.7
20260904065114 53 108 0.0 0.0 0.03 1.05 1.05 99 1009.6
20260904064112 53 109 0.0 0.0 0.02 1.04 1.04 99 1009.6
20260904063104 53 110 0.0 0.0 0.02 1.03 1.03 99 1009.8
20260904062052 53 110 0.0 0.0 0.02 1.03 1.03 99 1009.5
20260904061049 53 111 0.0 0.0 0.01 1.02 1.02 99 1009.6
20260904060040 53 110 0.0 0.0 0.01 1.02 1.02 99 1009.5
20260904055024 53 110 0.0 0.0 0.01 1.02 1.02 99 1009.5
20260904054016 53 110 0.0 0.0 0.01 1.02 1.02 99 1009.5
20260904052958 53 110 0.0 0.0 0.00 1.01 1.01 99 1009.5
20260904051935 53 110 0.0 0.0 0.00 1.01 1.01 99 1009.5
20260904050908 53 110 0.0 0.0 0.00 1.01 1.01 99 1009.4
20260904045900 53 110 0.0 0.0 0.00 1.01 1.01 99 1009.6
20260904044834 53 110 0.0 0.0 0.00 1.01 1.01 99 1009.6
20260904043809 53 110 0.0 0.0 0.00 1.01 1.01 99 1009.7
20260904042806 53 110 0.0 0.0 0.00 1.01 1.01 99 1009.5
20260904041804 53 110 0.0 0.0 0.00 1.01 1.01 99 1009.6
20260904040750 53 110 0.0 0.0 0.00 1.01 1.01 99 1009.6
20260904035741 53 110 0.0 0.0 0.00 1.01 1.01 99 1009.6
20260904034733 53 110 0.0 0.0 0.00 1.01 1.01 99 1009.5
20260904033727 54 111 0.0 0.0 0.00 1.01 1.01 99 1009.2
20260904032722 54 102 0.0 0.0 0.00 1.01 1.01 99 1009.3
20260904031719 54 103 0.0 0.0 0.00 1.01 1.01 99 1009.0
20260904030647 54 101 0.0 0.0 0.00 1.01 1.01 99 1009.0
20260904025615 54 110 0.0 0.0 0.00 1.01 1.01 99 1009.0
20260904024558 54 107 0.0 0.0 0.02 1.01 1.01 99 1008.9
20260904023525 54 108 0.0 0.0 0.07 1.01 1.01 99 1009.0
20260904022510 54 111 0.0 0.0 0.09 1.01 1.01 99 1009.0
20260904021502 54 111 0.0 0.0 0.14 1.01 1.01 99 1009.0
20260904020443 54 112 0.0 0.0 0.19 1.01 1.01 99 1009.1
20260904015421 54 105 0.0 0.0 0.26 1.01 1.01 98 1008.8
20260904014405 54 98 0.0 0.0 0.37 0.98 0.98 98 1008.6
20260904013345 53 95 0.0 0.0 0.61 0.94 0.94 98 1008.9
20260904012344 53 93 0.0 0.0 0.74 0.91 0.91 97 1009.0
20260904011327 53 84 0.0 0.0 0.77 0.87 0.87 97 1009.2
20260904010322 54 83 0.0 0.0 0.72 0.81 0.81 97 1009.1
20260904005317 54 87 0.0 0.0 0.65 0.74 0.74 96 1009.0
20260904004241 55 85 0.0 0.0 0.50 0.59 0.59 94 1009.1
20260904003239 57 107 0.0 0.0 0.22 0.34 0.31 93 1009.0
20260904002235 58 111 0.0 0.0 0.07 0.21 0.16 90 1008.7
20260904001212 62 107 0.0 0.0 0.00 0.14 0.09 76 1008.6
20260904000204 64 104 0.0 0.0 0.00 0.14 0.09 72 1008.1
20260903235143 65 108 0.0 1.0 0.00 0.14 0.09 67 1008.2
20260903234136 65 109 0.0 0.0 0.00 0.14 0.09 67 1008.1
20260903233126 66 90 1.0 1.0 0.00 0.14 0.09 63 1008.0
20260903232057 67 101 0.0 0.0 0.00 0.14 0.09 61 1008.0
20260903231041 69 101 0.0 0.0 0.00 0.14 0.09 59 1008.1
20260903230032 70 122 0.0 0.0 0.00 0.14 0.09 49 1008.2
20260903225001 66 94 0.0 1.0 0.00 0.15 0.09 59 1008.3
20260903223934 67 100 0.0 0.0 0.00 0.17 0.09 57 1008.3
20260903222903 66 104 0.0 0.0 0.00 0.19 0.09 60 1008.2
20260903221859 66 101 2.0 2.0 0.00 0.20 0.09 59 1008.3
20260903220855 67 86 1.0 2.0 0.00 0.21 0.09 59 1008.3
20260903215843 67 102 0.0 0.0 0.00 0.23 0.09 51 1008.5
20260903214829 67 102 0.0 0.0 0.00 0.25 0.09 53 1008.4
20260903213749 67 122 0.0 0.0 0.00 0.26 0.09 51 1008.4
20260903212721 65 109 0.0 0.0 0.00 0.27 0.09 66 1008.5
20260903211710 64 105 0.0 0.0 0.00 0.27 0.09 71 1008.7
20260903210709 63 103 0.0 0.0 0.00 0.28 0.09 73 1008.5
20260903205651 64 99 1.0 1.0 0.00 0.30 0.09 71 1008.3
20260903204630 65 101 0.0 0.0 0.00 0.30 0.09 69 1008.3
20260903203625 64 178 2.0 3.0 0.00 0.30 0.09 67 1008.2
20260903202622 64 112 0.0 0.0 0.00 0.30 0.09 72 1008.2
20260903201558 66 229 3.0 3.0 0.00 0.30 0.09 64 1008.2
20260903200557 66 103 0.0 0.0 0.00 0.30 0.09 64 1008.3
20260903195526 65 110 0.0 0.0 0.00 0.30 0.09 65 1008.4
20260903194524 65 103 0.0 0.0 0.00 0.30 0.09 63 1008.2
20260903193455 64 97 1.0 2.0 0.00 0.31 0.09 66 1008.4
20260903192431 62 117 0.0 0.0 0.00 0.31 0.09 69 1008.4
20260903191421 62 113 0.0 0.0 0.00 0.31 0.09 76 1008.4
20260903190358 62 111 0.0 0.0 0.00 0.31 0.09 71 1008.3
20260903185335 62 126 1.0 1.0 0.00 0.31 0.09 71 1008.4
20260903184314 62 122 0.0 1.0 0.00 0.31 0.09 71 1008.4
20260903183258 62 119 0.0 0.0 0.00 0.31 0.09 79 1008.2
20260903182257 62 108 0.0 0.0 0.00 0.31 0.09 80 1008.2
20260903181248 61 117 0.0 0.0 0.00 0.31 0.09 81 1008.4
20260903180236 60 109 0.0 0.0 0.00 0.31 0.09 86 1008.3
20260903175227 59 109 0.0 0.0 0.00 0.31 0.09 86 1008.3
20260903174214 59 110 0.0 0.0 0.00 0.31 0.09 87 1008.2
20260903173201 58 110 0.0 0.0 0.00 0.31 0.09 89 1008.2
20260903172159 57 111 0.0 0.0 0.00 0.31 0.09 91 1008.3
20260903171146 57 111 0.0 0.0 0.00 0.31 0.09 91 1008.1
20260903170134 57 111 0.0 0.0 0.00 0.31 0.09 93 1008.2
20260903165105 56 111 0.0 0.0 0.00 0.31 0.09 94 1008.0
20260903164049 56 111 0.0 0.0 0.00 0.31 0.09 95 1008.2
20260903163035 55 111 0.0 0.0 0.00 0.31 0.09 96 1008.0
20260903162024 54 109 0.0 0.0 0.00 0.31 0.09 97 1007.9
20260903161007 54 109 0.0 0.0 0.00 0.31 0.09 98 1008.1
20260903155929 54 109 0.0 0.0 0.00 0.31 0.09 98 1008.1
20260903154915 54 109 0.0 0.0 0.00 0.31 0.09 99 1008.2
20260903153914 53 111 0.0 0.0 0.00 0.31 0.09 99 1008.2
20260903152858 53 106 0.0 0.0 0.01 0.31 0.09 99 1008.1
20260903151845 53 106 0.0 0.0 0.01 0.31 0.09 99 1008.0
20260903150828 53 106 0.0 0.0 0.01 0.31 0.09 99 1008.0
20260903145814 52 106 0.0 0.0 0.02 0.31 0.09 99 1007.8
20260903144746 52 106 0.0 0.0 0.03 0.31 0.09 99 1007.8
20260903143736 52 106 0.0 0.0 0.03 0.31 0.09 99 1007.9
20260903142714 52 106 0.0 0.0 0.03 0.30 0.08 99 1007.8
20260903141653 52 107 0.0 0.0 0.04 0.30 0.08 99 1007.5
20260903140644 52 103 0.0 0.0 0.04 0.30 0.08 99 1007.7
20260903135640 51 103 0.0 0.0 0.03 0.29 0.07 99 1007.8
20260903134625 51 103 0.0 0.0 0.04 0.28 0.06 99 1007.8
20260903133606 51 103 0.0 0.0 0.04 0.27 0.05 98 1007.6
20260903132557 51 103 0.0 0.0 0.04 0.27 0.05 98 1007.6
20260903131529 51 103 0.0 0.0 0.04 0.26 0.04 98 1007.3
20260903130524 51 103 0.0 0.0 0.04 0.26 0.04 98 1007.4
20260903125503 52 103 0.0 0.0 0.04 0.26 0.04 97 1007.3